Location: *
(55.5817°S, 142.4781°W)
Time: 07:11:32
(UTC+00:00)

Cosmos 2227 Rocket - Pass Details

Date: 29 April 2025
Orbit: 838 x 843 km, 71.0° (Epoch: 23 May)

Event Time Altitude Azimuth Distance (km) Brightness Sun altitude
Exits shadow 14:14:43 34° 326° (NW) 1,377 3.0 -22.3°
Drops below altitude 10° 14:18:28 10° 358° (N) 2,471 4.5 -21.7°
Sets 14:21:01 0° 5° (N) 3,398 5.4 -21.4°
